TimeEDT,TemperatureF,Dew PointF,Humidity,Sea Level PressureIn,VisibilityMPH,Wind Direction,Wind SpeedMPH,Gust SpeedMPH,PrecipitationIn,Events,Conditions,WindDirDegrees,DateUTC
12:56 AM,64.0,54.0,70,29.82,10.0,NW,13.8,-,N/A,,Clear,320,2012-10-16 04:56:00
1:56 AM,62.1,52.0,70,29.83,10.0,NNW,16.1,-,N/A,,Clear,330,2012-10-16 05:56:00
2:56 AM,60.1,50.0,69,29.84,10.0,NNW,15.0,-,N/A,,Clear,330,2012-10-16 06:56:00
3:56 AM,57.9,48.0,70,29.85,10.0,NNW,15.0,-,N/A,,Clear,340,2012-10-16 07:56:00
4:56 AM,57.0,46.9,69,29.87,10.0,NNW,11.5,-,N/A,,Clear,340,2012-10-16 08:56:00
5:56 AM,55.0,45.0,69,29.89,10.0,NNW,9.2,-,N/A,,Clear,340,2012-10-16 09:56:00
6:56 AM,54.0,45.0,72,29.91,10.0,North,8.1,-,N/A,,Clear,350,2012-10-16 10:56:00
7:56 AM,53.1,45.0,74,29.93,10.0,NNW,6.9,-,N/A,,Scattered Clouds,340,2012-10-16 11:56:00
8:56 AM,55.9,44.1,64,29.96,10.0,North,11.5,-,N/A,,Clear,360,2012-10-16 12:56:00
9:56 AM,60.1,46.0,60,29.96,10.0,North,9.2,18.4,N/A,,Scattered Clouds,360,2012-10-16 13:56:00
10:56 AM,64.0,45.0,50,29.95,10.0,NNE,12.7,-,N/A,,Scattered Clouds,20,2012-10-16 14:56:00
11:56 AM,66.0,44.1,45,29.94,10.0,North,9.2,-,N/A,,Clear,10,2012-10-16 15:56:00
12:56 PM,66.9,44.1,44,29.92,10.0,North,11.5,-,N/A,,Clear,350,2012-10-16 16:56:00
1:56 PM,68.0,44.1,42,29.90,10.0,NNE,6.9,16.1,N/A,,Clear,30,2012-10-16 17:56:00
2:56 PM,69.1,45.0,42,29.89,10.0,North,9.2,-,N/A,,Clear,10,2012-10-16 18:56:00
3:56 PM,68.0,44.1,42,29.89,10.0,NW,8.1,16.1,N/A,,Clear,320,2012-10-16 19:56:00
4:56 PM,69.1,44.1,40,29.88,10.0,NNW,9.2,-,N/A,,Clear,340,2012-10-16 20:56:00
5:56 PM,66.0,44.1,45,29.89,10.0,NNW,5.8,-,N/A,,Clear,330,2012-10-16 21:56:00
6:56 PM,62.1,46.0,56,29.90,10.0,NNE,3.5,-,N/A,,Clear,20,2012-10-16 22:56:00
7:56 PM,54.0,48.9,83,29.92,10.0,Calm,Calm,-,N/A,,Clear,0,2012-10-16 23:56:00
8:56 PM,53.1,50.0,89,29.93,10.0,Calm,Calm,-,N/A,,Clear,0,2012-10-17 00:56:00
9:56 PM,51.1,48.9,92,29.94,10.0,Calm,Calm,-,N/A,,Clear,0,2012-10-17 01:56:00
10:56 PM,50.0,48.0,93,29.95,10.0,Calm,Calm,-,N/A,,Clear,0,2012-10-17 02:56:00
11:56 PM,50.0,48.0,93,29.95,10.0,Calm,Calm,-,N/A,,Clear,0,2012-10-17 03:56:00